Regional Weather Roundup
Issued by NWS

Home | Current Version | Previous Version | Text Only | Print | Product List | Glossary Off
Versions: 1 2 3 4 5 6 7 8 9 10 11 12 13 14 15 16 17 18 19 20 21 22 23 24 25 26 27 28 29 30 31 32 33 34 35 36 37 38 39 40 41 42 43 44 45 46 47 48 49 50

000
ASUS43 KOAX 240602
RWRNE

WEATHER ROUNDUP FOR NEBRASKA
NATIONAL WEATHER SERVICE OMAHA NE
100 AM CDT SUN JUL 24 2016

NOTES: SATELLITE DATA IS BEING USED TO AUGMENT CLOUD COVER ABOVE
       12000 FEET.
       "FAIR" INDICATES FEW OR NO CLOUDS BELOW 12,000 FEET WITH NO
       SIGNIFICANT WEATHER AND/OR OBSTRUCTIONS TO VISIBILITY.

  * THESE STATIONS DO NOT REPORT WEATHER SUCH AS RAIN...SNOW OR FOG.

NEZ001>004-019>022-054>056-240700-
NEBRASKA PANHANDLE

CITY           SKY/WX    TMP DP  RH WIND       PRES   REMARKS
SCOTTSBLUFF    PTCLDY    68  57  68 E7        30.07R
6HR MIN TEMP:  67; 6HR MAX TEMP:  93;

ALLIANCE       CLEAR     65  56  72 NE5       30.07R
6HR MIN TEMP:  63; 6HR MAX TEMP:  91;

CHADRON        CLEAR     65  52  62 NE3       30.04R
6HR MIN TEMP:  63; 6HR MAX TEMP:  91;

KIMBALL        CLOUDY    72  56  56 S14       30.13R
SIDNEY         CLOUDY    74  53  48 SW9       30.14R
6HR MIN TEMP:  72; 6HR MAX TEMP:  81; 6HR PCP: TRACE;

$$

NEZ057>060-069>072-079>082-240700-
SOUTHWEST NEBRASKA

CITY           SKY/WX    TMP DP  RH WIND       PRES   REMARKS
NORTH PLATTE   PTCLDY    74  59  59 NE9       29.99R
6HR MIN TEMP:  74; 6HR MAX TEMP:  93;

IMPERIAL       LGT RAIN  79  60  52 NW13G25   30.04R
6HR MIN TEMP:  78; 6HR MAX TEMP:  94; 6HR PCP: TRACE;

LEXINGTON      CLEAR     74  65  74 N8        29.95R
MCCOOK         PTCLDY    73  70  90 CALM      29.94R
6HR MIN TEMP:  73; 6HR MAX TEMP:  93;

OGALLALA       CLOUDY    78  60  53 W8        30.07R
$$

NEZ005>010-023>029-035>040-094-240700-
NORTH CENTRAL NEBRASKA

CITY           SKY/WX    TMP DP  RH WIND       PRES   REMARKS
VALENTINE      PTCLDY    71  55  56 NE5       30.00R
6HR MIN TEMP:  70; 6HR MAX TEMP:  91;

AINSWORTH      CLEAR     64  60  85 NE9       29.99S
BROKEN BOW     PTCLDY    73  62  68 N13       29.97R
6HR MIN TEMP:  71; 6HR MAX TEMP:  90;

O`NEILL        CLEAR     73  65  74 N6        29.96R
ORD            CLEAR     75  64  68 NW9       29.93R
6HR MIN TEMP:  74; 6HR MAX TEMP:  91;

THEDFORD       CLOUDY    72  56  56 NE5       30.03R
$$

NEZ041-046>049-061>064-073>077-083>087-240700-
SOUTH CENTRAL NEBRASKA

CITY           SKY/WX    TMP DP  RH WIND       PRES   REMARKS
GRAND ISLAND   CLEAR     78  73  84 N8        29.89R
6HR MIN TEMP:  77; 6HR MAX TEMP:  93;

AURORA         CLEAR     75  75  99 CALM      29.88R
HASTINGS       CLEAR     77  73  87 CALM      29.89R
6HR MIN TEMP:  76; 6HR MAX TEMP:  93;

HEBRON         CLEAR     76  69  78 CALM      29.85S
HOLDREGE       PTCLDY    73  71  91 CALM      29.92R
KEARNEY *      CLEAR     75  70  83 N6        29.93R
YORK           CLEAR     75  72  88 CALM      29.87R
$$

NEZ011>018-030>034-042>045-240700-
NORTHEAST NEBRASKA

CITY           SKY/WX    TMP DP  RH WIND       PRES   REMARKS
NORFOLK        CLEAR     81  72  74 N16G23    29.86R
6HR MIN TEMP:  79; 6HR MAX TEMP:  89;

ALBION         CLEAR     78  69  73 N7        29.90R
BLAIR          CLOUDY    79  75  89 S5        29.84S
FREMONT        CLEAR     84  71  64 S6        29.83S
TEKAMAH        CLEAR     78  75  90 SE5       29.81R
6HR MIN TEMP:  78; 6HR MAX TEMP:  89;

WAYNE          CLEAR     81  77  89 NW10      29.85R
$$

NEZ050>053-065>068-078-088>093-240700-
SOUTHEAST NEBRASKA

CITY           SKY/WX    TMP DP  RH WIND       PRES   REMARKS
LINCOLN        CLEAR     76  72  87 S6        29.84S
6HR MIN TEMP:  76; 6HR MAX TEMP:  93;

OMAHA EPPLEY   CLOUDY    85  74  69 S6        29.82S HX  92
6HR MIN TEMP:  84; 6HR MAX TEMP:  92;

BEATRICE       CLOUDY    82  70  65 S6        29.84R
FALLS CITY     CLOUDY    79  73  82 S8        29.84R
6HR MIN TEMP:  79; 6HR MAX TEMP:  87; 6HR PCP: TRACE;

NEBRASKA CITY  PTCLDY    80  73  79 S8        29.84S
PLATTSMOUTH    CLOUDY    81  73  75 S8        29.83S
$$

NEZ044-045-051>053-067-240700-
OMAHA AREA

CITY           SKY/WX    TMP DP  RH WIND       PRES   REMARKS
OMAHA EPPLEY   CLOUDY    85  74  69 S6        29.82S HX  92
6HR MIN TEMP:  84; 6HR MAX TEMP:  92;

BLAIR          CLOUDY    79  75  89 S5        29.84S
FREMONT        CLEAR     84  71  64 S6        29.83S
MILLARD        CLOUDY    82  75  79 CALM      29.83R
OFFUTT AFB     CLOUDY    82  74  77 VRB2      29.82S
PLATTSMOUTH    CLOUDY    81  73  75 S8        29.83S
WAHOO          FAIR      78  72  80 S3        29.83S
$$




USA.gov is the U.S. government's official web portal to all federal, state and local government web resources and services.